Plymouth, NH

10:56 AM EST on February 20, 2017 (GMT -0500)
Plymouth

Weather History for K1P1 - April, 2014

Change the Weather History Date:

Saturday, April 12, 2014

  Actual Average (KLCI) Record (KLCI)
Temperature  
Mean Temperature 47 °F -  
Max Temperature 62 °F 52 °F 74 °F (1987)
Min Temperature 32 °F 30 °F 21 °F (1989)
Degree Days  
Heating Degree Days 18    
Moisture  
Dew Point 33 °F    
Average Humidity 70    
Maximum Humidity 100    
Minimum Humidity 26    
Precipitation  
Precipitation 0.00 in - - ()
Sea Level Pressure  
Sea Level Pressure 30.10 in    
Wind  
Wind Speed 2 mph (West)    
Max Wind Speed 15 mph    
Max Gust Speed 24 mph    
Visibility 7 miles    
Events Fog    
Averages and records for this station are not official NWS values.
T = Trace of Precipitation, MM = Missing Value Source: NWS Daily Summary

Daily Weather History Graph

Daily Weather History Graph

Search for Another Location

Airport or City:

Trip Planner

Search our weather history database for the weather conditions in past years. The results will help you decide how hot, cold, wet, or windy it might be!

Date:

Astronomy

Apr. 12, 2014 Rise Set
Actual Time 6:09 AM EDT 7:27 PM EDT
Civil Twilight 5:39 AM EDT 7:56 PM EDT
Nautical Twilight 5:03 AM EDT 8:32 PM EDT
Astronomical Twilight 4:26 AM EDT 9:10 PM EDT
Moon 4:58 PM EDT (4/12) 4:39 AM EDT (4/12)
Length of Visible Light 14h 17m
Length of Day
13h 17m
Waxing Gibbous, 93% of the Moon is Illuminated
Apr 12
Waxing Gibbous
Apr 15
Full
Apr 22
Last Quarter
Apr 29
New
May 6
First Quarter

Hourly Weather History & Observations

Time (EDT) Temp. Windchill Dew Point Humidity Pressure Visibility Wind Dir Wind Speed Gust Speed Precip Events Conditions
12:15 AM 36.3 °F - 36.0 °F 99% 30.01 in 2.0 mi Calm Calm - N/A   Mist
12:35 AM 36.5 °F - 36.3 °F 99% 30.01 in 0.8 mi Calm Calm - N/A   Mist
12:55 AM 36.5 °F - 36.3 °F 99% 30.01 in 0.5 mi Calm Calm - N/A Fog Fog
1:15 AM 35.8 °F - 35.6 °F 99% 30.01 in 0.2 mi Calm Calm - N/A Fog Fog
1:55 AM 36.5 °F - 36.3 °F 99% 30.01 in 0.2 mi Calm Calm - N/A Fog Fog
2:15 AM 36.5 °F - 36.5 °F 100% 30.01 in 0.5 mi Calm Calm - N/A Fog Fog
2:35 AM 36.9 °F - 36.7 °F 99% 30.01 in 0.5 mi Calm Calm - N/A Fog Fog
2:55 AM 36.5 °F - 36.5 °F 100% 30.01 in 0.8 mi Calm Calm - N/A   Mist
3:15 AM 36.5 °F - 36.5 °F 100% 30.02 in 0.8 mi Calm Calm - N/A   Mist
3:35 AM 36.0 °F - 36.0 °F 100% 30.02 in 0.8 mi Calm Calm - N/A   Mist
3:55 AM 35.4 °F - 35.4 °F 100% 30.03 in 0.8 mi Calm Calm - N/A   Mist
4:15 AM 35.4 °F 32.6 °F 35.4 °F 100% 30.04 in 5.0 mi West 3.5 mph - N/A   Mist
4:35 AM 34.7 °F - 34.7 °F 100% 30.04 in 5.0 mi Calm Calm - N/A   Mist
4:55 AM 34.7 °F 31.8 °F 34.7 °F 100% 30.05 in 2.5 mi WNW 3.5 mph - N/A   Mist
5:15 AM 34.3 °F - 34.3 °F 100% 30.07 in 3.0 mi Calm Calm - N/A   Mist
5:35 AM 33.8 °F - 33.8 °F 100% 30.07 in 1.0 mi Calm Calm - N/A   Mist
5:55 AM 33.3 °F - 33.3 °F 100% 30.08 in 0.8 mi Calm Calm - N/A   Mist
6:15 AM 33.3 °F 30.2 °F 33.3 °F 100% 30.09 in 1.2 mi West 3.5 mph - N/A   Mist
6:35 AM 32.5 °F - 32.5 °F 100% 30.09 in 1.8 mi Calm Calm - N/A   Mist
6:55 AM 32.5 °F - 32.5 °F 100% 30.10 in 1.0 mi Calm Calm - N/A   Mist
7:15 AM 32.9 °F - 32.9 °F 100% 30.11 in 0.2 mi Calm Calm - N/A Fog Fog
7:35 AM 32.7 °F - 32.7 °F 100% 30.12 in 0.8 mi Calm Calm - N/A   Mist
7:55 AM 33.3 °F - 33.3 °F 100% 30.12 in 0.5 mi Calm Calm - N/A Fog Fog
8:15 AM 33.8 °F - 33.8 °F 100% 30.13 in 0.2 mi Calm Calm - N/A Fog Fog
8:35 AM 34.2 °F - 34.2 °F 100% 30.14 in 0.8 mi Calm Calm - N/A   Mist
8:55 AM 34.9 °F - 34.9 °F 100% 30.13 in 0.8 mi Calm Calm - N/A   Mist
9:15 AM 36.5 °F - 36.5 °F 100% 30.13 in 0.5 mi Calm Calm - N/A Fog Fog
9:35 AM 38.7 °F - 38.5 °F 99% 30.12 in 10.0 mi Calm Calm - N/A   Unknown
9:55 AM 40.6 °F - 40.5 °F 99% 30.11 in 10.0 mi Calm Calm - N/A   Unknown
10:15 AM 42.3 °F - 41.9 °F 99% 30.12 in 10.0 mi Calm Calm - N/A   Unknown
10:35 AM 45.3 °F - 44.8 °F 98% 30.13 in 10.0 mi Calm Calm - N/A   Unknown
10:55 AM 48.0 °F - 46.8 °F 95% 30.12 in 10.0 mi Calm Calm - N/A   Unknown
11:15 AM 54.1 °F - 36.5 °F 51% 30.12 in 10.0 mi Calm Calm - N/A   Unknown
11:35 AM 57.0 °F - 34.3 °F 42% 30.12 in 10.0 mi WNW 3.5 mph - N/A   Unknown
11:55 AM 57.7 °F - 27.5 °F 31% 30.12 in 10.0 mi West 12.7 mph 19.6 mph N/A   Unknown
12:15 PM 57.7 °F - 29.1 °F 34% 30.11 in 10.0 mi West 5.8 mph 19.6 mph N/A   Unknown
12:55 PM 59.0 °F - 28.2 °F 31% 30.10 in 10.0 mi West 13.8 mph 21.9 mph N/A   Unknown
1:15 PM 59.5 °F - 29.5 °F 32% 30.09 in 10.0 mi West 11.5 mph 18.4 mph N/A   Unknown
1:35 PM 59.9 °F - 29.8 °F 32% 30.09 in 10.0 mi WNW 10.4 mph 17.3 mph N/A   Unknown
1:55 PM 61.0 °F - 29.8 °F 31% 30.09 in 10.0 mi West 11.5 mph 18.4 mph N/A   Unknown
2:15 PM 61.7 °F - 27.5 °F 27% 30.09 in 10.0 mi WSW 15.0 mph 24.2 mph N/A   Unknown
2:35 PM 61.9 °F - 27.1 °F 27% 30.10 in 10.0 mi West 10.4 mph 24.2 mph N/A   Unknown
2:55 PM 62.8 °F - 28.2 °F 27% 30.09 in 10.0 mi West 8.1 mph 17.3 mph N/A   Unknown
3:15 PM 62.8 °F - 27.7 °F 27% 30.09 in 10.0 mi WNW 10.4 mph 17.3 mph N/A   Unknown
3:35 PM 62.1 °F - 26.4 °F 26% 30.09 in 10.0 mi NW 12.7 mph 18.4 mph N/A   Unknown
3:55 PM 62.6 °F - 27.1 °F 26% 30.08 in 10.0 mi West 9.2 mph 19.6 mph N/A   Unknown
4:15 PM 62.1 °F - 27.3 °F 27% 30.08 in 10.0 mi WNW 8.1 mph - N/A   Unknown
4:35 PM 62.4 °F - 28.2 °F 27% 30.09 in 10.0 mi WNW 12.7 mph 16.1 mph N/A   Unknown
4:55 PM 61.9 °F - 26.8 °F 26% 30.08 in 10.0 mi WNW 8.1 mph 16.1 mph N/A   Unknown
5:15 PM 62.6 °F - 27.7 °F 27% 30.08 in 10.0 mi West 8.1 mph - N/A   Unknown
5:35 PM 61.9 °F - 27.0 °F 27% 30.09 in 10.0 mi West 3.5 mph - N/A   Unknown
5:55 PM 61.7 °F - 27.3 °F 27% 30.10 in 10.0 mi West 6.9 mph - N/A   Unknown
6:15 PM 61.0 °F - 26.8 °F 27% 30.10 in 10.0 mi West 10.4 mph - N/A   Unknown
6:35 PM 60.8 °F - 27.5 °F 28% 30.11 in 10.0 mi Calm Calm - N/A   Unknown
6:55 PM 58.6 °F - 28.0 °F 31% 30.11 in 10.0 mi Calm Calm - N/A   Unknown
7:15 PM 56.5 °F - 30.4 °F 37% 30.12 in 10.0 mi WNW 3.5 mph - N/A   Unknown
7:35 PM 50.5 °F - 32.5 °F 50% 30.13 in 10.0 mi Calm Calm - N/A   Unknown
7:55 PM 47.1 °F - 34.2 °F 61% 30.14 in 10.0 mi SSE 3.5 mph - N/A   Unknown
8:15 PM 45.5 °F - 34.2 °F 65% 30.15 in 10.0 mi Calm Calm - N/A   Unknown
8:35 PM 43.3 °F - 34.9 °F 72% 30.17 in 10.0 mi Calm Calm - N/A   Unknown
8:55 PM 41.9 °F - 33.8 °F 73% 30.18 in 10.0 mi Calm Calm - N/A   Unknown
9:15 PM 41.4 °F - 32.0 °F 69% 30.18 in 10.0 mi Calm Calm - N/A   Unknown
9:35 PM 41.0 °F - 32.9 °F 73% 30.20 in 10.0 mi Calm Calm - N/A   Unknown
9:55 PM 40.3 °F - 32.7 °F 74% 30.20 in 10.0 mi Calm Calm - N/A   Unknown
10:15 PM 39.4 °F - 32.4 °F 76% 30.21 in 10.0 mi Calm Calm - N/A   Unknown
10:35 PM 37.9 °F - 33.1 °F 83% 30.21 in 10.0 mi Calm Calm - N/A   Unknown
10:55 PM 38.3 °F - 32.2 °F 79% 30.21 in 10.0 mi Calm Calm - N/A   Unknown
11:15 PM 37.2 °F - 32.2 °F 82% 30.21 in 10.0 mi Calm Calm - N/A   Unknown
11:35 PM 37.2 °F - 33.1 °F 85% 30.21 in 10.0 mi Calm Calm - N/A   Unknown